| time (UTC) | temp F | wind direction | speed MPH | gust MPH | rain 1hr in | rain 24hr in | rain mn in | humidity % | barometer mb |
| 20260508125053 | 49 | 225 | 15.0 | 28.0 | 0.00 | 0.00 | 0.00 | 72 | 1006.0 |
| 20260508124543 | 48 | 270 | 17.0 | 25.0 | 0.00 | 0.00 | 0.00 | 71 | 1005.9 |
| 20260508124033 | 48 | 270 | 14.0 | 24.0 | 0.00 | 0.00 | 0.00 | 71 | 1005.9 |
| 20260508123527 | 47 | 270 | 12.0 | 21.0 | 0.00 | 0.00 | 0.00 | 71 | 1005.9 |
| 20260508123013 | 47 | 270 | 7.0 | 23.0 | 0.00 | 0.00 | 0.00 | 71 | 1005.9 |
| 20260508121442 | 47 | 270 | 11.0 | 24.0 | 0.00 | 0.00 | 0.00 | 70 | 1005.7 |
| 20260508120931 | 47 | 270 | 12.0 | 28.0 | 0.00 | 0.00 | 0.00 | 70 | 1005.8 |
| 20260508120422 | 47 | 270 | 15.0 | 28.0 | 0.00 | 0.00 | 0.00 | 70 | 1005.7 |
| 20260508115918 | 46 | 270 | 15.0 | 24.0 | 0.00 | 0.00 | 0.00 | 70 | 1005.7 |
| 20260508114851 | 46 | 270 | 8.0 | 23.0 | 0.00 | 0.00 | 0.00 | 71 | 1005.5 |
| 20260508114341 | 46 | 270 | 17.0 | 28.0 | 0.00 | 0.00 | 0.00 | 70 | 1005.2 |
| 20260508113831 | 46 | 270 | 11.0 | 28.0 | 0.00 | 0.00 | 0.00 | 71 | 1005.1 |
| 20260508112811 | 45 | 315 | 11.0 | 24.0 | 0.00 | 0.00 | 0.00 | 71 | 1005.1 |
| 20260508112301 | 45 | 270 | 10.0 | 20.0 | 0.00 | 0.00 | 0.00 | 72 | 1004.9 |
| 20260508111751 | 45 | 270 | 8.0 | 20.0 | 0.00 | 0.00 | 0.00 | 71 | 1004.8 |
| 20260508111240 | 45 | 270 | 6.0 | 20.0 | 0.00 | 0.00 | 0.00 | 71 | 1004.9 |
| 20260508110730 | 45 | 270 | 11.0 | 28.0 | 0.00 | 0.00 | 0.00 | 71 | 1004.9 |
| 20260508110220 | 45 | 270 | 12.0 | 28.0 | 0.00 | 0.00 | 0.00 | 71 | 1004.5 |
| 20260508105711 | 45 | 270 | 13.0 | 21.0 | 0.00 | 0.00 | 0.00 | 71 | 1004.7 |
| 20260508105201 | 45 | 270 | 8.0 | 23.0 | 0.00 | 0.00 | 0.00 | 72 | 1004.5 |
| 20260508104140 | 45 | 270 | 7.0 | 21.0 | 0.00 | 0.00 | 0.00 | 72 | 1004.2 |
| 20260508103120 | 45 | 270 | 11.0 | 24.0 | 0.00 | 0.00 | 0.00 | 72 | 1004.0 |
| 20260508102609 | 45 | 270 | 15.0 | 24.0 | 0.00 | 0.00 | 0.00 | 71 | 1004.1 |
| 20260508102059 | 45 | 270 | 10.0 | 20.0 | 0.00 | 0.00 | 0.00 | 72 | 1004.0 |
| 20260508101549 | 46 | 270 | 11.0 | 20.0 | 0.00 | 0.00 | 0.00 | 72 | 1003.9 |
| 20260508101039 | 46 | 270 | 12.0 | 24.0 | 0.00 | 0.00 | 0.00 | 72 | 1003.6 |
| 20260508100531 | 46 | 0 | 11.0 | 26.0 | 0.00 | 0.00 | 0.00 | 72 | 1003.6 |
| 20260508100020 | 46 | 270 | 19.0 | 26.0 | 0.00 | 0.00 | 0.00 | 71 | 1003.6 |
| 20260508095508 | 46 | 270 | 14.0 | 25.0 | 0.00 | 0.00 | 0.00 | 72 | 1003.3 |
| 20260508095000 | 46 | 0 | 12.0 | 25.0 | 0.00 | 0.00 | 0.00 | 72 | 1003.5 |
| 20260508094446 | 46 | 270 | 17.0 | 29.0 | 0.00 | 0.00 | 0.00 | 72 | 1003.0 |
| 20260508093938 | 46 | 270 | 10.0 | 29.0 | 0.00 | 0.00 | 0.00 | 73 | 1003.1 |
| 20260508092918 | 47 | 270 | 13.0 | 26.0 | 0.00 | 0.00 | 0.00 | 73 | 1003.1 |
| 20260508091858 | 47 | 270 | 9.0 | 20.0 | 0.00 | 0.00 | 0.00 | 74 | 1002.9 |
| 20260508091348 | 47 | 270 | 13.0 | 23.0 | 0.00 | 0.00 | 0.00 | 75 | 1002.9 |
| 20260508090841 | 47 | 270 | 8.0 | 23.0 | 0.00 | 0.00 | 0.00 | 76 | 1003.1 |
| 20260508090327 | 47 | 270 | 15.0 | 25.0 | 0.00 | 0.00 | 0.00 | 75 | 1002.9 |
| 20260508085818 | 47 | 270 | 16.0 | 25.0 | 0.00 | 0.00 | 0.00 | 76 | 1002.9 |
| 20260508085308 | 47 | 270 | 12.0 | 23.0 | 0.00 | 0.00 | 0.00 | 77 | 1002.9 |
| 20260508084758 | 47 | 270 | 10.0 | 24.0 | 0.00 | 0.00 | 0.00 | 78 | 1002.8 |
| 20260508084247 | 48 | 270 | 10.0 | 24.0 | 0.00 | 0.00 | 0.00 | 79 | 1002.8 |
| 20260508083227 | 48 | 315 | 10.0 | 25.0 | 0.00 | 0.00 | 0.00 | 80 | 1002.7 |
| 20260508082717 | 48 | 270 | 17.0 | 25.0 | 0.00 | 0.00 | 0.00 | 81 | 1002.8 |
| 20260508081657 | 48 | 0 | 11.0 | 26.0 | 0.00 | 0.00 | 0.00 | 82 | 1002.8 |
| 20260508081147 | 49 | 270 | 11.0 | 27.0 | 0.00 | 0.00 | 0.00 | 82 | 1002.7 |
| 20260508080636 | 49 | 270 | 16.0 | 34.0 | 0.00 | 0.00 | 0.00 | 82 | 1002.7 |
| 20260508080126 | 49 | 270 | 10.0 | 34.0 | 0.00 | 0.00 | 0.00 | 82 | 1003.0 |
| 20260508074556 | 50 | 270 | 6.0 | 27.0 | 0.00 | 0.00 | 0.00 | 82 | 1002.9 |
| 20260508074046 | 49 | 270 | 11.0 | 23.0 | 0.00 | 0.00 | 0.00 | 81 | 1002.7 |
| 20260508073536 | 49 | 0 | 13.0 | 23.0 | 0.00 | 0.00 | 0.00 | 81 | 1003.0 |
| 20260508071455 | 49 | 270 | 10.0 | 21.0 | 0.00 | 0.00 | 0.00 | 82 | 1003.0 |
| 20260508070945 | 49 | 270 | 10.0 | 22.0 | 0.00 | 0.00 | 0.00 | 82 | 1002.8 |
| 20260508070435 | 49 | 270 | 10.0 | 22.0 | 0.00 | 0.00 | 0.00 | 82 | 1002.9 |
| 20260508065925 | 49 | 270 | 11.0 | 21.0 | 0.00 | 0.00 | 0.00 | 82 | 1002.8 |
| 20260508065415 | 49 | 270 | 14.0 | 22.0 | 0.00 | 0.00 | 0.00 | 81 | 1002.9 |
| 20260508064355 | 49 | 270 | 11.0 | 24.0 | 0.00 | 0.00 | 0.00 | 80 | 1003.0 |
| 20260508063845 | 49 | 270 | 17.0 | 24.0 | 0.00 | 0.00 | 0.00 | 80 | 1003.2 |
| 20260508063335 | 50 | 270 | 9.0 | 19.0 | 0.00 | 0.00 | 0.00 | 79 | 1003.2 |
| 20260508062824 | 50 | 270 | 11.0 | 22.0 | 0.00 | 0.00 | 0.00 | 78 | 1003.0 |
| 20260508062314 | 50 | 270 | 10.0 | 22.0 | 0.00 | 0.00 | 0.00 | 77 | 1003.2 |
| 20260508061804 | 51 | 225 | 8.0 | 22.0 | 0.00 | 0.00 | 0.00 | 77 | 1002.9 |
| 20260508060744 | 51 | 270 | 15.0 | 0.0 | 0.00 | 0.00 | 0.00 | 76 | 1003.1 |
| 20260508060151 | 51 | 270 | 16.0 | 0.0 | 0.00 | 0.00 | 0.00 | 77 | 1003.3 |
| 20260508055956 | 51 | 270 | 19.0 | 27.0 | 0.00 | 0.89 | 0.00 | 76 | 1003.5 |
| 20260508055446 | 52 | 270 | 16.0 | 30.0 | 0.00 | 0.89 | 0.00 | 77 | 1003.2 |
| 20260508054936 | 52 | 270 | 19.0 | 30.0 | 0.89 | 0.89 | 0.00 | 76 | 1003.2 |
| 20260508054426 | 52 | 270 | 16.0 | 31.0 | 0.89 | 0.89 | 0.00 | 77 | 1003.4 |
| 20260508053916 | 52 | 270 | 13.0 | 31.0 | 0.89 | 0.89 | 0.00 | 77 | 1003.5 |
| 20260508053406 | 52 | 270 | 17.0 | 30.0 | 0.89 | 0.89 | 0.00 | 77 | 1003.3 |
| 20260508052856 | 52 | 270 | 16.0 | 34.0 | 0.89 | 0.89 | 0.00 | 78 | 1003.5 |
| 20260508052345 | 52 | 270 | 23.0 | 34.0 | 0.89 | 0.89 | 0.00 | 78 | 1003.3 |
| 20260508051835 | 52 | 225 | 24.0 | 34.0 | 0.89 | 0.89 | 0.00 | 77 | 1003.4 |
| 20260508050814 | 52 | 225 | 21.0 | 42.0 | 0.89 | 0.89 | 0.00 | 78 | 1003.5 |
| 20260508050306 | 52 | 270 | 23.0 | 42.0 | 0.89 | 0.89 | 0.00 | 78 | 1003.1 |
| 20260508045244 | 52 | 225 | 19.0 | 40.0 | 0.89 | 0.89 | 0.00 | 78 | 1002.9 |
| 20260508044734 | 52 | 270 | 23.0 | 35.0 | 0.00 | 0.00 | 0.00 | 77 | 1003.0 |
| 20260508044224 | 52 | 270 | 20.0 | 34.0 | 0.00 | 0.00 | 0.00 | 79 | 1003.1 |
| 20260508043714 | 52 | 270 | 18.0 | 31.0 | 0.00 | 0.00 | 0.00 | 79 | 1003.0 |
| 20260508043204 | 52 | 270 | 21.0 | 39.0 | 0.00 | 0.00 | 0.00 | 80 | 1003.3 |
| 20260508042654 | 52 | 270 | 22.0 | 39.0 | 0.00 | 0.00 | 0.00 | 80 | 1003.3 |
| 20260508042145 | 52 | 270 | 14.0 | 34.0 | 0.00 | 0.00 | 0.00 | 80 | 1003.4 |
| 20260508041634 | 52 | 270 | 23.0 | 34.0 | 0.00 | 0.00 | 0.00 | 81 | 1003.1 |
| 20260508041123 | 52 | 270 | 20.0 | 34.0 | 0.00 | 0.00 | 0.00 | 81 | 1003.4 |
| 20260508040117 | 52 | 270 | 17.0 | 23.0 | 0.00 | 0.00 | 0.00 | 84 | 1003.4 |
| 20260508032341 | 53 | 270 | 17.0 | 34.0 | 0.00 | 0.00 | 0.00 | 82 | 1002.8 |
| 20260508031831 | 53 | 270 | 21.0 | 34.0 | 0.00 | 0.00 | 0.00 | 82 | 1002.7 |
| 20260508031322 | 53 | 270 | 16.0 | 34.0 | 0.00 | 0.00 | 0.00 | 83 | 1002.6 |
| 20260508030811 | 53 | 270 | 21.0 | 34.0 | 0.00 | 0.00 | 0.00 | 82 | 1002.9 |
| 20260508030302 | 54 | 270 | 22.0 | 40.0 | 0.00 | 0.00 | 0.00 | 82 | 1002.6 |
| 20260508025751 | 54 | 270 | 25.0 | 40.0 | 0.00 | 0.00 | 0.37 | 82 | 1002.6 |
| 20260508025241 | 54 | 270 | 20.0 | 40.0 | 0.00 | 0.00 | 0.37 | 82 | 1002.6 |
| 20260508024221 | 54 | 270 | 24.0 | 42.0 | 0.00 | 0.00 | 0.37 | 81 | 1002.6 |
| 20260508023201 | 55 | 270 | 9.0 | 0.0 | 0.00 | 0.00 | 0.37 | 81 | 1002.3 |
| 20260508022135 | 55 | 270 | 10.0 | 23.0 | 0.00 | 0.22 | 0.37 | 81 | 1002.2 |
| 20260508021624 | 55 | 270 | 5.0 | 23.0 | 0.00 | 0.22 | 0.37 | 81 | 1002.1 |
| 20260508020605 | 55 | 270 | 14.0 | 28.0 | 0.00 | 0.22 | 0.37 | 80 | 1002.1 |
| 20260508015544 | 55 | 270 | 21.0 | 27.0 | 0.00 | 0.22 | 0.37 | 80 | 1002.1 |
| 20260508015034 | 55 | 270 | 15.0 | 27.0 | 0.00 | 0.22 | 0.37 | 80 | 1002.3 |
| 20260508014524 | 55 | 270 | 15.0 | 27.0 | 0.00 | 0.22 | 0.37 | 81 | 1002.0 |
| 20260508014014 | 55 | 270 | 14.0 | 24.0 | 0.00 | 0.22 | 0.37 | 81 | 1002.2 |
| 20260508013504 | 55 | 270 | 13.0 | 23.0 | 0.00 | 0.22 | 0.37 | 82 | 1002.2 |
| 20260508012954 | 55 | 225 | 16.0 | 30.0 | 0.00 | 0.22 | 0.37 | 82 | 1002.2 |
| 20260508012443 | 55 | 270 | 20.0 | 30.0 | 0.00 | 0.22 | 0.37 | 81 | 1002.2 |
| 20260508011934 | 55 | 225 | 20.0 | 27.0 | 0.00 | 0.22 | 0.37 | 81 | 1002.4 |
| 20260508011423 | 55 | 270 | 18.0 | 27.0 | 0.00 | 0.22 | 0.37 | 82 | 1002.5 |
| 20260508010914 | 55 | 270 | 18.0 | 26.0 | 0.00 | 0.22 | 0.37 | 82 | 1002.3 |
| 20260508010403 | 55 | 270 | 12.0 | 24.0 | 0.00 | 0.22 | 0.37 | 83 | 1002.5 |
| 20260508005853 | 55 | 270 | 17.0 | 23.0 | 0.00 | 0.22 | 0.37 | 83 | 1002.8 |
| 20260508005342 | 55 | 270 | 15.0 | 23.0 | 0.00 | 0.22 | 0.37 | 84 | 1002.7 |
| 20260508004833 | 55 | 270 | 15.0 | 23.0 | 0.00 | 0.22 | 0.37 | 84 | 1003.1 |
| 20260508003812 | 55 | 270 | 15.0 | 28.0 | 0.00 | 0.22 | 0.37 | 85 | 1002.7 |
| 20260508002752 | 56 | 270 | 19.0 | 30.0 | 0.00 | 0.22 | 0.37 | 83 | 1002.3 |
| 20260508002243 | 56 | 270 | 18.0 | 30.0 | 0.00 | 0.22 | 0.37 | 83 | 1002.2 |
| 20260508001732 | 56 | 270 | 18.0 | 29.0 | 0.00 | 0.22 | 0.37 | 82 | 1002.6 |
| 20260508001222 | 56 | 225 | 11.0 | 22.0 | 0.00 | 0.22 | 0.37 | 81 | 1002.7 |
| 20260508000712 | 56 | 270 | 8.0 | 17.0 | 0.00 | 0.22 | 0.37 | 81 | 1002.5 |
| 20260508000204 | 56 | 270 | 10.0 | 21.0 | 0.00 | 0.22 | 0.37 | 81 | 1002.7 |
| 20260507235652 | 56 | 270 | 9.0 | 21.0 | 0.00 | 0.22 | 0.37 | 80 | 1002.7 |
| 20260507235142 | 56 | 270 | 11.0 | 19.0 | 0.00 | 0.22 | 0.37 | 80 | 1003.0 |
| 20260507234631 | 56 | 270 | 11.0 | 21.0 | 0.00 | 0.22 | 0.37 | 80 | 1002.9 |
| 20260507234121 | 56 | 270 | 13.0 | 23.0 | 0.00 | 0.22 | 0.37 | 80 | 1002.7 |
| 20260507233611 | 56 | 270 | 14.0 | 23.0 | 0.00 | 0.22 | 0.37 | 79 | 1002.6 |
| 20260507233101 | 56 | 270 | 13.0 | 20.0 | 0.00 | 0.22 | 0.37 | 80 | 1002.6 |
| 20260507232551 | 56 | 270 | 5.0 | 17.0 | 0.00 | 0.22 | 0.37 | 80 | 1002.8 |
| 20260507232041 | 56 | 270 | 10.0 | 16.0 | 0.00 | 0.22 | 0.37 | 80 | 1003.0 |
| 20260507231532 | 56 | 270 | 6.0 | 12.0 | 0.00 | 0.22 | 0.37 | 80 | 1002.7 |
| 20260507230511 | 56 | 270 | 8.0 | 19.0 | 0.00 | 0.22 | 0.37 | 79 | 1002.7 |
| 20260507225451 | 56 | 270 | 7.0 | 17.0 | 0.00 | 0.22 | 0.37 | 78 | 1003.1 |
| 20260507224430 | 56 | 270 | 8.0 | 17.0 | 0.00 | 0.22 | 0.37 | 79 | 1002.9 |
| 20260507223920 | 56 | 270 | 11.0 | 19.0 | 0.00 | 0.22 | 0.37 | 79 | 1003.3 |
| 20260507223410 | 56 | 270 | 11.0 | 19.0 | 0.00 | 0.22 | 0.37 | 80 | 1003.0 |
| 20260507222859 | 56 | 270 | 7.0 | 17.0 | 0.00 | 0.22 | 0.37 | 81 | 1003.0 |
| 20260507221329 | 55 | 270 | 6.0 | 15.0 | 0.00 | 0.22 | 0.37 | 82 | 1003.0 |
| 20260507220819 | 55 | 270 | 7.0 | 14.0 | 0.00 | 0.22 | 0.37 | 82 | 1003.2 |
| 20260507220309 | 55 | 0 | 11.0 | 14.0 | 0.00 | 0.22 | 0.37 | 83 | 1003.0 |
| 20260507214739 | 55 | 270 | 5.0 | 13.0 | 0.00 | 0.22 | 0.37 | 82 | 1003.1 |
| 20260507214229 | 55 | 270 | 4.0 | 11.0 | 0.00 | 0.22 | 0.37 | 82 | 1003.1 |
| 20260507213719 | 56 | 270 | 4.0 | 11.0 | 0.00 | 0.22 | 0.37 | 82 | 1003.0 |
| 20260507212658 | 56 | 270 | 3.0 | 13.0 | 0.00 | 0.22 | 0.37 | 81 | 1002.6 |
| 20260507212149 | 56 | 315 | 7.0 | 16.0 | 0.00 | 0.22 | 0.37 | 81 | 1002.5 |
| 20260507211128 | 56 | 270 | 10.0 | 17.0 | 0.00 | 0.22 | 0.37 | 80 | 1001.9 |
| 20260507210618 | 56 | 225 | 11.0 | 16.0 | 0.00 | 0.22 | 0.37 | 80 | 1001.8 |
| 20260507210108 | 56 | 270 | 8.0 | 16.0 | 0.00 | 0.22 | 0.37 | 81 | 1002.1 |
| 20260507205558 | 56 | 270 | 10.0 | 15.0 | 0.00 | 0.22 | 0.37 | 81 | 1001.7 |
| 20260507205047 | 56 | 270 | 5.0 | 16.0 | 0.00 | 0.22 | 0.37 | 81 | 1001.6 |
| 20260507204537 | 56 | 270 | 4.0 | 16.0 | 0.00 | 0.22 | 0.37 | 81 | 1001.7 |
| 20260507204028 | 56 | 270 | 11.0 | 17.0 | 0.00 | 0.22 | 0.37 | 80 | 1002.0 |
| 20260507203517 | 56 | 270 | 5.0 | 17.0 | 0.00 | 0.22 | 0.37 | 80 | 1001.9 |
| 20260507203007 | 57 | 270 | 10.0 | 21.0 | 0.00 | 0.22 | 0.37 | 79 | 1002.0 |
| 20260507202457 | 57 | 270 | 12.0 | 24.0 | 0.00 | 0.22 | 0.37 | 78 | 1002.1 |
| 20260507201947 | 57 | 270 | 12.0 | 24.0 | 0.00 | 0.22 | 0.37 | 79 | 1001.1 |
| 20260507201436 | 57 | 225 | 13.0 | 24.0 | 0.00 | 0.22 | 0.37 | 79 | 1001.2 |
| 20260507200926 | 57 | 270 | 15.0 | 24.0 | 0.00 | 0.22 | 0.37 | 78 | 1001.6 |
| 20260507200417 | 57 | 270 | 9.0 | 21.0 | 0.00 | 0.22 | 0.37 | 79 | 1001.1 |
| 20260507195906 | 57 | 270 | 15.0 | 21.0 | 0.00 | 0.22 | 0.37 | 79 | 1001.8 |
| 20260507195357 | 57 | 270 | 11.0 | 21.0 | 0.00 | 0.22 | 0.37 | 80 | 1002.1 |
| 20260507194846 | 58 | 270 | 10.0 | 20.0 | 0.00 | 0.22 | 0.37 | 80 | 1001.7 |
| 20260507193826 | 58 | 270 | 15.0 | 22.0 | 0.00 | 0.22 | 0.37 | 79 | 1000.9 |
| 20260507193317 | 58 | 225 | 15.0 | 23.0 | 0.00 | 0.22 | 0.37 | 78 | 1000.2 |
| 20260507191745 | 58 | 225 | 20.0 | 27.0 | 0.00 | 0.22 | 0.37 | 79 | 1000.2 |
| 20260507191235 | 58 | 225 | 15.0 | 22.0 | 0.00 | 0.22 | 0.37 | 80 | 1000.3 |
| 20260507190725 | 58 | 270 | 14.0 | 24.0 | 0.00 | 0.22 | 0.37 | 79 | 1000.0 |
| 20260507190216 | 58 | 270 | 17.0 | 24.0 | 0.00 | 0.22 | 0.37 | 78 | 999.9 |
| 20260507185705 | 58 | 225 | 19.0 | 27.0 | 0.00 | 0.22 | 0.37 | 78 | 999.9 |
| 20260507185155 | 59 | 180 | 20.0 | 27.0 | 0.00 | 0.22 | 0.37 | 80 | 1000.1 |
| 20260507184645 | 58 | 270 | 17.0 | 26.0 | 0.00 | 0.22 | 0.37 | 81 | 1000.9 |
| 20260507184135 | 58 | 225 | 17.0 | 27.0 | 0.00 | 0.22 | 0.37 | 81 | 1000.4 |
| 20260507183625 | 58 | 270 | 18.0 | 27.0 | 0.00 | 0.22 | 0.37 | 81 | 1001.2 |
| 20260507183114 | 58 | 270 | 15.0 | 32.0 | 0.00 | 0.22 | 0.37 | 81 | 1001.6 |
| 20260507182604 | 58 | 270 | 18.0 | 32.0 | 0.00 | 0.22 | 0.37 | 81 | 1002.3 |
| 20260507182051 | 59 | 270 | 17.0 | 27.0 | 0.00 | 0.22 | 0.37 | 81 | 1002.5 |
| 20260507181541 | 59 | 270 | 13.0 | 25.0 | 0.00 | 0.22 | 0.37 | 82 | 1002.7 |
| 20260507181031 | 59 | 270 | 12.0 | 21.0 | 0.00 | 0.22 | 0.37 | 81 | 1002.1 |
| 20260507180524 | 59 | 270 | 12.0 | 21.0 | 0.00 | 0.22 | 0.37 | 81 | 1001.6 |
| 20260507180013 | 59 | 270 | 13.0 | 22.0 | 0.00 | 0.22 | 0.37 | 81 | 1001.8 |
| 20260507175503 | 59 | 0 | 9.0 | 28.0 | 0.00 | 0.22 | 0.37 | 81 | 1001.8 |
| 20260507174954 | 59 | 270 | 17.0 | 28.0 | 0.00 | 0.22 | 0.37 | 81 | 1002.1 |
| 20260507174443 | 59 | 270 | 18.0 | 27.0 | 0.00 | 0.22 | 0.37 | 81 | 1001.8 |
| 20260507173933 | 59 | 225 | 21.0 | 25.0 | 0.00 | 0.22 | 0.37 | 81 | 1002.3 |
| 20260507172913 | 59 | 270 | 11.0 | 28.0 | 0.00 | 0.22 | 0.37 | 85 | 1002.1 |
| 20260507172402 | 60 | 270 | 17.0 | 31.0 | 0.00 | 0.22 | 0.37 | 85 | 1002.6 |
| 20260507171904 | 60 | 270 | 22.0 | 31.0 | 0.00 | 0.22 | 0.37 | 85 | 1002.3 |
| 20260507171344 | 61 | 270 | 16.0 | 25.0 | 0.00 | 0.22 | 0.37 | 85 | 1002.6 |
| 20260507170833 | 61 | 270 | 15.0 | 24.0 | 0.00 | 0.22 | 0.37 | 82 | 1002.8 |
| 20260507170322 | 61 | 225 | 15.0 | 24.0 | 0.00 | 0.22 | 0.37 | 80 | 1002.9 |
| 20260507165812 | 61 | 270 | 17.0 | 24.0 | 0.00 | 0.22 | 0.37 | 82 | 1002.9 |
| 20260507165306 | 61 | 180 | 10.0 | 24.0 | 0.00 | 0.22 | 0.37 | 84 | 1002.7 |
| 20260507164753 | 62 | 270 | 10.0 | 24.0 | 0.00 | 0.22 | 0.37 | 84 | 1002.9 |
| 20260507164242 | 62 | 270 | 12.0 | 24.0 | 0.00 | 0.22 | 0.37 | 84 | 1002.9 |
| 20260507163733 | 62 | 270 | 16.0 | 27.0 | 0.00 | 0.22 | 0.37 | 83 | 1002.6 |
| 20260507163222 | 63 | 270 | 16.0 | 27.0 | 0.00 | 0.22 | 0.37 | 83 | 1002.5 |
| 20260507162201 | 63 | 180 | 0.0 | 29.0 | 0.00 | 0.22 | 0.37 | 85 | 1013.9 |
| 20260507161651 | 63 | 225 | 22.0 | 29.0 | 0.00 | 0.22 | 0.25 | 84 | 1001.7 |
| 20260507161142 | 63 | 270 | 15.0 | 26.0 | 0.00 | 0.22 | 0.25 | 85 | 1001.5 |
| 20260507160632 | 63 | 270 | 15.0 | 20.0 | 0.00 | 0.22 | 0.25 | 85 | 1001.5 |
| 20260507155102 | 63 | 270 | 7.0 | 21.0 | 0.00 | 0.22 | 0.25 | 88 | 1002.3 |
| 20260507154551 | 63 | 270 | 14.0 | 21.0 | 0.00 | 0.22 | 0.25 | 88 | 1001.7 |
| 20260507154040 | 63 | 270 | 17.0 | 21.0 | 0.00 | 0.22 | 0.25 | 89 | 1001.0 |
| 20260507153530 | 63 | 270 | 13.0 | 19.0 | 0.00 | 0.22 | 0.25 | 89 | 1001.1 |
| 20260507153021 | 63 | 225 | 13.0 | 26.0 | 0.00 | 0.22 | 0.25 | 88 | 1000.7 |
| 20260507152510 | 62 | 225 | 19.0 | 26.0 | 0.00 | 0.22 | 0.25 | 88 | 1000.3 |
| 20260507151450 | 62 | 180 | 8.0 | 17.0 | 0.00 | 0.22 | 0.25 | 89 | 999.7 |
| 20260507150940 | 63 | 225 | 6.0 | 19.0 | 0.00 | 0.22 | 0.25 | 89 | 1000.0 |
| 20260507145919 | 64 | 225 | 15.0 | 21.0 | 0.00 | 0.22 | 0.25 | 87 | 1000.5 |
| 20260507144859 | 64 | 180 | 16.0 | 17.0 | 0.00 | 0.22 | 0.25 | 87 | 999.7 |
| 20260507143839 | 63 | 180 | 10.0 | 16.0 | 0.00 | 0.22 | 0.25 | 86 | 1000.7 |
| 20260507143329 | 63 | 180 | 11.0 | 15.0 | 0.00 | 0.22 | 0.25 | 87 | 1000.6 |
| 20260507142828 | 63 | 180 | 8.0 | 13.0 | 0.00 | 0.22 | 0.25 | 88 | 1001.1 |
| 20260507141759 | 63 | 225 | 9.0 | 21.0 | 0.00 | 0.22 | 0.25 | 88 | 1001.3 |
| 20260507141248 | 63 | 225 | 9.0 | 23.0 | 0.00 | 0.22 | 0.25 | 89 | 1001.0 |
| 20260507140738 | 63 | 225 | 16.0 | 28.0 | 0.00 | 0.22 | 0.25 | 87 | 1000.3 |
| 20260507140228 | 63 | 180 | 22.0 | 28.0 | 0.00 | 0.22 | 0.25 | 87 | 1000.4 |
| 20260507135718 | 63 | 180 | 20.0 | 25.0 | 0.00 | 0.22 | 0.25 | 87 | 1000.3 |
| 20260507135208 | 63 | 180 | 15.0 | 24.0 | 0.00 | 0.22 | 0.25 | 87 | 1000.6 |
| 20260507134659 | 63 | 180 | 17.0 | 24.0 | 0.00 | 0.22 | 0.25 | 88 | 1000.4 |
| 20260507134148 | 63 | 135 | 16.0 | 27.0 | 0.00 | 0.22 | 0.25 | 89 | 1000.7 |
| 20260507133638 | 63 | 180 | 18.0 | 30.0 | 0.00 | 0.22 | 0.25 | 90 | 1000.7 |
| 20260507133128 | 63 | 225 | 19.0 | 34.0 | 0.00 | 0.22 | 0.25 | 90 | 1001.1 |
| 20260507132618 | 62 | 270 | 25.0 | 34.0 | 0.00 | 0.22 | 0.25 | 90 | 1001.2 |
| 20260507132108 | 62 | 180 | 19.0 | 34.0 | 0.01 | 0.22 | 0.25 | 90 | 1000.9 |
| 20260507131047 | 62 | 225 | 28.0 | 34.0 | 0.05 | 0.22 | 0.25 | 92 | 1000.9 |
| 20260507130538 | 62 | 270 | 12.0 | 27.0 | 0.05 | 0.22 | 0.25 | 92 | 1002.8 |
| 20260507130027 | 62 | 225 | 12.0 | 27.0 | 0.06 | 0.22 | 0.25 | 92 | 1002.9 |